Tracking 29892 objects as of 21-Nov-2024
HD Live streaming from Space Station
objects crossing your sky now

SL-8 DEB

Track SL-8 DEB now!
10-day predictions


NORAD ID: 1618
Int'l Code: 1965-073K
Perigee: 1,378.3 km
Apogee: 1,732.6 km
Inclination: 56.2 °
Period: 117.1 minutes
Semi major axis: 7926 km
RCS: 0.1074 m2 (medium)
Launch date: September 18, 1965
Source: Commonwealth of Independent States (former USSR) (CIS)
Launch site: TYURATAM MISSILE AND SPACE COMPLEX (TTMTR)

Note: This is SATELLITE DEBRIS
Your satellite tracking list
Your tracking list is empty




NASA's NSSDC Master Catalog

Two Line Element Set (TLE):
1 01618U 65073K   24325.67270182  .00000050  00000-0  10855-2 0  9992
2 01618  56.1761 196.9096 0223525 246.5577 144.1962 12.30227473652538
Source of the keplerian elements: AFSPC